Location: Bottom School (historical)
(37.9078°N, 89.3593°W)
Time: 23:06:27
(UTC+00:00)

Cosmos 1570 Rocket - Pass Details

Date: 09 July 2022
Orbit: 762 x 788 km, 74.1° (Epoch: 16 August)

Event Time Altitude Azimuth Distance (km) Brightness Sun altitude
Exits shadow 06:36:01 27° 87° (E) 1,446 5.5 -29.2°
Drops below altitude 10° 06:39:47 10° 42° (NE) 2,314 7.2 -29.1°
Sets 06:42:27 0° 31° (NNE) 3,249 8.3 -29.0°
